Weather History for KEWK - April, 2014

Change the Weather History Date:

Thursday, April 10, 2014

  Actual Average Record
Temperature  
Mean Temperature 58 °F -  
Max Temperature 69 °F 61 °F 80 °F (2006)
Min Temperature 48 °F 41 °F 28 °F (2013)
Degree Days  
Heating Degree Days 6    
Growing Degree Days 8 (Base 50)    
Moisture  
Dew Point 34 °F    
Average Humidity 37    
Maximum Humidity 58    
Minimum Humidity 24    
Precipitation  
Precipitation 0.00 in - - ()
Sea Level Pressure  
Sea Level Pressure 29.89 in    
Wind  
Wind Speed 16 mph (NE)    
Max Wind Speed 25 mph    
Max Gust Speed 34 mph    
Visibility 10 miles    
Events      
Averages and records for this station are not official NWS values.
T = Trace of Precipitation, MM = Missing Value Source: NWS Daily Summary

Daily Weather History Graph

Daily Weather History Graph

Search for Another Location

Airport or City:

Trip Planner

Search our weather history database for the weather conditions in past years. The results will help you decide how hot, cold, wet, or windy it might be!

Date:

Astronomy

Apr. 10, 2014 Rise Set
Actual Time 7:00 AM CDT 8:00 PM CDT
Civil Twilight 6:33 AM CDT 8:27 PM CDT
Nautical Twilight 6:01 AM CDT 8:59 PM CDT
Astronomical Twilight 5:28 AM CDT 9:32 PM CDT
Moon 3:49 PM CDT (4/10) 4:20 AM CDT (4/10)
Length of Visible Light 13h 53m
Length of Day
12h 59m
Waxing Gibbous, 80% of the Moon is Illuminated
Apr 10
Waxing Gibbous
Apr 15
Full
Apr 22
Last Quarter
Apr 29
New
May 6
First Quarter

Hourly Weather History & Observations

Time (CDT) Temp. Dew Point Humidity Pressure Visibility Wind Dir Wind Speed Gust Speed Precip Events Conditions
12:15 AM 64.4 °F 37.4 °F 37% 29.82 in 10.0 mi South 19.6 mph 24.2 mph N/A   Clear
12:35 AM 64.4 °F 37.4 °F 37% 29.81 in 10.0 mi South 19.6 mph 26.5 mph N/A   Clear
12:55 AM 64.4 °F 37.4 °F 37% 29.81 in 10.0 mi South 18.4 mph 21.9 mph N/A   Clear
1:15 AM 62.6 °F 37.4 °F 39% 29.81 in 10.0 mi SSW 18.4 mph - N/A   Clear
1:35 AM 62.6 °F 37.4 °F 39% 29.80 in 10.0 mi SSW 20.7 mph 26.5 mph N/A   Clear
1:55 AM 62.6 °F 37.4 °F 39% 29.79 in 10.0 mi SSW 18.4 mph - N/A   Clear
2:15 AM 62.6 °F 37.4 °F 39% 29.79 in 10.0 mi SSW 18.4 mph 24.2 mph N/A   Clear
2:35 AM 62.6 °F 37.4 °F 39% 29.78 in 10.0 mi South 19.6 mph 24.2 mph N/A   Clear
2:55 AM 60.8 °F 37.4 °F 42% 29.77 in 10.0 mi South 19.6 mph 24.2 mph N/A   Clear
3:15 AM 60.8 °F 37.4 °F 42% 29.76 in 10.0 mi South 21.9 mph 26.5 mph N/A   Clear
3:35 AM 60.8 °F 37.4 °F 42% 29.76 in 10.0 mi South 19.6 mph 25.3 mph N/A   Clear
3:55 AM 60.8 °F 37.4 °F 42% 29.75 in 10.0 mi South 16.1 mph 24.2 mph N/A   Clear
4:15 AM 60.8 °F 37.4 °F 42% 29.74 in 10.0 mi South 18.4 mph - N/A   Clear
4:35 AM 59.0 °F 37.4 °F 45% 29.74 in 10.0 mi South 16.1 mph - N/A   Clear
4:55 AM 57.2 °F 37.4 °F 48% 29.73 in 10.0 mi South 15.0 mph 20.7 mph N/A   Clear
5:15 AM 57.2 °F 37.4 °F 48% 29.73 in 10.0 mi South 11.5 mph - N/A   Clear
5:35 AM 53.6 °F 37.4 °F 54% 29.73 in 10.0 mi South 11.5 mph - N/A   Clear
5:55 AM 53.6 °F 37.4 °F 54% 29.73 in 10.0 mi South 10.4 mph - N/A   Clear
6:15 AM 53.6 °F 37.4 °F 54% 29.73 in 10.0 mi South 10.4 mph - N/A   Clear
6:35 AM 53.6 °F 37.4 °F 54% 29.73 in 10.0 mi South 9.2 mph - N/A   Clear
6:55 AM 53.6 °F 37.4 °F 54% 29.78 in 10.0 mi WNW 9.2 mph 23.0 mph N/A   Clear
7:15 AM 53.6 °F 37.4 °F 54% 29.80 in 10.0 mi West 3.5 mph 21.9 mph N/A   Clear
7:35 AM 51.8 °F 37.4 °F 58% 29.81 in 10.0 mi North 6.9 mph - N/A   Clear
7:55 AM 51.8 °F 37.4 °F 58% 29.80 in 10.0 mi East 3.5 mph - N/A   Clear
8:15 AM 55.4 °F 39.2 °F 54% 29.82 in 10.0 mi ENE 4.6 mph - N/A   Clear
8:35 AM 57.2 °F 39.2 °F 51% 29.83 in 10.0 mi East 3.5 mph - N/A   Clear
8:55 AM 60.8 °F 39.2 °F 45% 29.83 in 10.0 mi North 11.5 mph - N/A   Clear
9:15 AM 62.6 °F 39.2 °F 42% 29.83 in 10.0 mi NNE 20.7 mph 25.3 mph N/A   Clear
9:35 AM 62.6 °F 37.4 °F 39% 29.84 in 10.0 mi NE 23.0 mph 28.8 mph N/A   Clear
9:55 AM 62.6 °F 37.4 °F 39% 29.85 in 10.0 mi NE 23.0 mph 29.9 mph N/A   Clear
10:15 AM 62.6 °F 35.6 °F 37% 29.86 in 10.0 mi NE 23.0 mph 32.2 mph N/A   Clear
10:35 AM 64.4 °F 35.6 °F 34% 29.88 in 10.0 mi NE 24.2 mph 33.4 mph N/A   Clear
10:55 AM 64.4 °F 35.6 °F 34% 29.89 in 10.0 mi NE 21.9 mph 31.1 mph N/A   Clear
11:15 AM 64.4 °F 35.6 °F 34% 29.90 in 10.0 mi NE 23.0 mph 33.4 mph N/A   Clear
11:35 AM 66.2 °F 35.6 °F 32% 29.91 in 10.0 mi NNE 25.3 mph 32.2 mph N/A   Clear
11:55 AM 66.2 °F 35.6 °F 32% 29.91 in 10.0 mi NNE 24.2 mph 33.4 mph N/A   Clear
12:15 PM 68.0 °F 35.6 °F 30% 29.92 in 10.0 mi NNE 21.9 mph 29.9 mph N/A   Clear
12:35 PM 69.8 °F 35.6 °F 28% 29.91 in 10.0 mi NE 19.6 mph 28.8 mph N/A   Clear
12:55 PM 69.8 °F 33.8 °F 27% 29.92 in 10.0 mi NNE 23.0 mph 34.5 mph N/A   Clear
1:15 PM 69.8 °F 33.8 °F 27% 29.92 in 10.0 mi NNE 24.2 mph 31.1 mph N/A   Clear
1:35 PM 69.8 °F 33.8 °F 27% 29.93 in 10.0 mi NE 18.4 mph 26.5 mph N/A   Clear
1:55 PM 69.8 °F 33.8 °F 27% 29.94 in 10.0 mi NNE 21.9 mph 27.6 mph N/A   Clear
2:15 PM 69.8 °F 33.8 °F 27% 29.94 in 10.0 mi NNE 20.7 mph 28.8 mph N/A   Clear
2:35 PM 69.8 °F 33.8 °F 27% 29.95 in 10.0 mi North 19.6 mph 25.3 mph N/A   Clear
2:55 PM 69.8 °F 33.8 °F 27% 29.95 in 10.0 mi NNE 23.0 mph 27.6 mph N/A   Clear
3:15 PM 69.8 °F 33.8 °F 27% 29.95 in 10.0 mi NE 16.1 mph 24.2 mph N/A   Clear
3:35 PM 68.0 °F 30.2 °F 24% 29.95 in 10.0 mi NE 16.1 mph 20.7 mph N/A   Clear
3:55 PM 66.2 °F 30.2 °F 26% 29.95 in 10.0 mi NE 16.1 mph 20.7 mph N/A   Clear
4:15 PM 66.2 °F 30.2 °F 26% 29.94 in 10.0 mi NNE 15.0 mph 20.7 mph N/A   Clear
4:35 PM 66.2 °F 30.2 °F 26% 29.94 in 10.0 mi NNE 15.0 mph 19.6 mph N/A   Clear
4:55 PM 66.2 °F 30.2 °F 26% 29.95 in 10.0 mi NE 13.8 mph 17.3 mph N/A   Clear
5:15 PM 66.2 °F 30.2 °F 26% 29.95 in 10.0 mi NE 11.5 mph 16.1 mph N/A   Clear
5:35 PM 66.2 °F 30.2 °F 26% 29.96 in 10.0 mi NNE 15.0 mph - N/A   Clear
5:55 PM 66.2 °F 30.2 °F 26% 29.96 in 10.0 mi NE 12.7 mph 19.6 mph N/A   Clear
6:15 PM 66.2 °F 30.2 °F 26% 29.97 in 10.0 mi NE 10.4 mph - N/A   Clear
6:35 PM 66.2 °F 28.4 °F 24% 29.97 in 10.0 mi NE 10.4 mph 17.3 mph N/A   Clear
6:55 PM 66.2 °F 28.4 °F 24% 29.98 in 10.0 mi NNE 10.4 mph - N/A   Clear
7:15 PM 64.4 °F 28.4 °F 26% 29.98 in 10.0 mi NNE 9.2 mph - N/A   Clear
7:35 PM 64.4 °F 28.4 °F 26% 29.98 in 10.0 mi NE 5.8 mph - N/A   Clear
7:55 PM 59.0 °F 28.4 °F 31% 29.99 in 10.0 mi NNE 6.9 mph - N/A   Clear
8:15 PM 57.2 °F 28.4 °F 33% 29.99 in 10.0 mi NE 6.9 mph - N/A   Clear
8:35 PM 57.2 °F 28.4 °F 33% 29.99 in 10.0 mi NE 6.9 mph - N/A   Clear
8:55 PM 55.4 °F 28.4 °F 36% 30.00 in 10.0 mi NE 6.9 mph - N/A   Clear
9:15 PM 55.4 °F 28.4 °F 36% 30.00 in 10.0 mi NE 6.9 mph - N/A   Clear
9:35 PM 55.4 °F 26.6 °F 33% 30.01 in 10.0 mi NE 6.9 mph - N/A   Clear
9:55 PM 53.6 °F 26.6 °F 35% 30.02 in 10.0 mi NE 8.1 mph - N/A   Clear
10:15 PM 53.6 °F 26.6 °F 35% 30.02 in 10.0 mi NE 9.2 mph - N/A   Clear
10:35 PM 51.8 °F 26.6 °F 38% 30.03 in 10.0 mi NE 8.1 mph - N/A   Clear
10:55 PM 51.8 °F 26.6 °F 38% 30.02 in 10.0 mi ENE 5.8 mph - N/A   Clear
11:15 PM 48.2 °F 26.6 °F 43% 30.01 in 10.0 mi ENE 8.1 mph - N/A   Clear
11:35 PM 50.0 °F 26.6 °F 40% 30.01 in 5.0 mi NE 8.1 mph - N/A   Clear
11:55 PM 50.0 °F 26.6 °F 40% 30.02 in 5.0 mi NE 8.1 mph - N/A   Clear